FW9697 Weather Reports


time (UTC)temp
F
wind
direction
speed
knots
gust
knots
rain 1hr
in
rain 24hr
in
rain mn
in
humidity
%
barometer
mb
20260507060853 0 38 0.0 0.0 0.00 0.00 0.00 1005.1
20260507060349 0 32 0.0 0.0 0.00 0.00 0.00 1004.9
20260507055846 0 52 0.0 0.0 0.00 0.00 0.00 1005.1
20260507055341 0 35 0.0 0.0 0.00 0.00 0.00 1005.3
20260507054839 0 36 0.0 0.0 0.00 0.00 0.00 1005.2
20260507054334 0 37 0.0 0.0 0.00 0.00 0.00 1005.3
20260507053832 0 70 0.0 0.0 0.00 0.00 0.00 1005.5
20260507053329 0 49 0.0 0.0 0.00 0.00 0.00 1005.4
20260507052828 0 48 0.0 0.0 0.00 0.00 0.00 1005.4
20260507052324 0 45 0.0 0.0 0.00 0.00 0.00 1005.5
20260507051822 0 48 0.0 0.0 0.00 0.00 0.00 1005.4
20260507051320 0 48 0.0 0.0 0.00 0.00 0.00 1005.4
20260507050816 0 48 0.0 0.0 0.00 0.00 0.00 1005.2
20260507050313 0 35 0.0 0.0 0.00 0.00 0.00 1005.1
20260507045810 0 47 0.0 0.0 0.00 0.00 0.00 1005.2
20260507045307 0 39 0.0 0.0 0.00 0.00 0.00 1005.1
20260507044803 0 42 0.0 0.0 0.00 0.00 0.00 1005.4
20260507044300 0 54 0.0 0.0 0.00 0.00 0.00 1005.4
20260507043756 0 43 0.0 0.0 0.00 0.00 0.00 1005.5
20260507043253 0 51 0.0 0.0 0.00 0.00 0.00 1005.5
20260507042749 0 51 0.0 0.0 0.00 0.00 0.00 1005.2
20260507042244 0 51 0.0 0.0 0.00 0.00 0.00 1005.2
20260507041742 0 54 0.0 0.0 0.00 0.00 0.00 1005.2
20260507041238 0 59 0.0 0.0 0.00 0.00 0.00 1005.4
20260507040735 0 61 0.0 0.0 0.00 0.00 0.00 1005.0
20260507040231 0 62 0.0 0.0 0.00 0.00 0.00 1005.2
20260507035727 0 46 0.0 0.0 0.00 0.04 0.04 1005.3
20260507035223 0 58 0.0 0.0 0.00 0.04 0.04 1005.5
20260507034721 0 46 0.0 0.0 0.00 0.04 0.04 1005.3
20260507034217 0 49 0.0 0.0 0.00 0.04 0.04 1005.3
20260507033716 0 43 0.0 0.0 0.00 0.04 0.04 1005.1
20260507033213 0 56 0.0 0.0 0.00 0.04 0.04 1005.3
20260507032710 0 47 0.0 0.0 0.00 0.04 0.04 1004.9
20260507032206 0 70 0.0 0.0 0.00 0.04 0.04 1004.8
20260507031703 0 49 0.0 0.0 0.00 0.04 0.04 1004.9
20260507031159 0 65 0.0 0.0 0.07 0.04 0.04 1004.6
20260507030656 0 70 0.0 0.0 0.07 0.04 0.04 1004.5
20260507030154 0 71 0.0 0.0 0.00 0.03 0.03 1004.5
20260507025651 0 77 0.0 0.0 0.00 0.03 0.03 1004.5
20260507025148 0 68 0.0 0.0 0.00 0.03 0.03 1004.3
20260507024646 0 156 0.0 0.0 0.00 0.03 0.03 1004.5
20260507024143 0 142 1.7 1.7 0.00 0.03 0.03 1004.2
20260507023638 0 61 0.0 0.0 0.00 0.03 0.03 1004.3
20260507023136 0 80 0.0 0.0 0.00 0.03 0.03 1004.5
20260507022633 0 102 0.0 0.0 0.00 0.03 0.03 1004.6
20260507022128 0 71 0.0 0.0 0.00 0.03 0.03 1004.5
20260507021625 0 47 0.0 0.0 0.00 0.03 0.03 1004.5
20260507021120 0 144 0.9 1.7 0.00 0.03 0.03 1004.4
20260507020619 0 88 0.0 0.0 0.00 0.03 0.03 1004.4
20260507020115 0 117 0.0 0.0 0.00 0.03 0.03 1004.5
20260507015614 0 82 0.0 0.0 0.00 0.03 0.03 1004.5
20260507015111 0 58 0.9 1.7 0.00 0.03 0.03 1004.5
20260507014607 0 85 0.0 0.0 0.00 0.03 0.03 1004.4
20260507014103 0 77 0.0 0.0 0.00 0.03 0.03 1004.4
20260507013600 0 111 0.0 0.9 0.00 0.03 0.03 1004.3
20260507013057 0 153 0.9 0.9 0.00 0.03 0.03 1004.6
20260507012554 0 75 0.0 0.0 0.00 0.03 0.03 1004.5
20260507012050 0 202 0.9 1.7 0.00 0.03 0.03 1004.6
20260507011548 0 148 0.9 1.7 0.00 0.03 0.03 1004.7
20260507011044 0 60 0.0 0.0 0.00 0.03 0.03 1004.7
20260507010539 0 113 0.9 0.9 0.00 0.03 0.03 1004.8
20260507010035 0 227 3.5 5.2 0.00 0.03 0.03 1004.7
20260507005533 0 104 0.0 0.0 0.00 0.03 0.03 1004.8
20260507005029 0 249 0.9 1.7 0.00 0.03 0.03 1004.6
20260507004526 0 86 0.0 0.0 0.00 0.03 0.03 1004.5
20260507004023 0 125 2.6 2.6 0.00 0.03 0.03 1004.9
20260507003519 0 90 0.0 0.0 0.00 0.03 0.03 1004.7
20260507003014 0 154 1.7 1.7 0.00 0.03 0.03 1004.7
20260507002511 0 134 0.9 1.7 0.00 0.03 0.03 1004.8
20260507002007 0 109 0.0 0.9 0.00 0.03 0.03 1004.6
20260507001503 0 127 0.9 1.7 0.00 0.03 0.03 1004.7
20260507001001 0 31 1.7 1.7 0.00 0.03 0.03 1004.6
20260507000457 0 109 0.0 0.0 0.00 0.03 0.03 1004.4
20260506235952 0 227 1.7 2.6 0.00 0.03 0.03 1004.3
20260506235450 0 115 0.9 0.9 0.00 0.03 0.03 1004.4
20260506234946 0 117 0.0 0.0 0.00 0.03 0.03 1004.4
20260506234443 0 169 0.9 1.7 0.00 0.03 0.03 1004.1
20260506233941 0 69 0.0 0.0 0.00 0.03 0.03 1004.3
20260506233437 0 74 0.0 0.0 0.00 0.03 0.03 1004.4
20260506232934 0 79 0.0 0.0 0.05 0.03 0.03 1004.4
20260506232430 0 242 0.0 0.0 0.05 0.03 0.03 1004.5
20260506231926 0 110 0.0 0.0 0.00 0.02 0.02 1004.1
20260506231423 0 28 0.0 0.0 0.00 0.02 0.02 1004.4
20260506230920 0 149 0.9 0.9 0.07 0.02 0.02 1004.2
20260506230417 0 49 0.0 0.0 0.07 0.02 0.02 1004.4
20260506225914 0 87 0.9 1.7 0.00 0.01 0.01 1004.3
20260506225411 0 23 0.0 0.0 0.00 0.01 0.01 1004.3
20260506224908 0 241 0.0 0.9 0.00 0.01 0.01 1004.3
20260506224405 0 76 0.0 0.0 0.00 0.01 0.01 1004.4
20260506223901 0 17 0.0 0.9 0.00 0.01 0.01 1004.6
20260506223356 0 40 0.0 0.0 0.05 0.01 0.01 1004.5
20260506222854 0 127 0.0 0.9 0.05 0.01 0.01 1004.7
20260506222350 0 233 2.6 4.3 0.00 0.00 0.00 1004.4
20260506221848 0 176 0.0 0.0 0.00 0.00 0.00 1004.6
20260506221345 0 184 0.0 0.0 0.00 0.00 0.00 1004.5
20260506220842 0 115 0.0 0.0 0.00 0.00 0.00 1004.8
20260506220338 0 69 0.0 0.0 0.00 0.00 0.00 1004.8
20260506215835 0 173 2.6 5.2 0.00 0.00 0.00 1004.9
20260506215330 0 173 2.6 5.2 0.00 0.00 0.00 1004.9
20260506214826 0 104 0.0 0.0 0.00 0.07 0.07 1004.7
20260506214323 0 81 0.9 0.9 0.07 0.07 0.07 1005.0
20260506213822 0 107 0.0 0.0 0.07 0.07 0.07 1004.9
20260506213319 0 178 1.7 1.7 0.00 0.06 0.06 1004.7
20260506212816 0 13 1.7 2.6 0.00 0.06 0.06 1005.1
20260506212311 0 30 2.6 2.6 0.00 0.06 0.06 1004.8
20260506211807 0 250 1.7 2.6 0.00 0.06 0.06 1004.9
20260506211303 0 71 0.0 0.0 0.00 0.06 0.06 1004.9
20260506210801 0 65 0.0 0.0 0.00 0.06 0.06 1005.1
20260506210257 0 63 0.9 1.7 0.00 0.06 0.06 1005.1
20260506205754 0 49 0.0 0.0 0.00 0.06 0.06 1005.1
20260506205249 0 136 0.9 0.9 0.00 0.06 0.06 1005.3
20260506204746 0 135 1.7 2.6 0.00 0.06 0.06 1005.4
20260506204245 0 133 0.9 0.9 0.00 0.06 0.06 1005.1
20260506203742 0 79 0.0 0.0 0.00 0.06 0.06 1005.3
20260506203239 0 55 0.0 0.0 0.00 0.06 0.06 1005.3
20260506202736 0 13 1.7 1.7 0.00 0.06 0.06 1005.3
20260506202233 0 150 0.0 0.9 0.05 0.06 0.06 1005.4
20260506201730 0 61 0.0 0.0 0.05 0.06 0.06 1005.2
20260506201226 0 186 2.6 4.3 0.00 0.05 0.05 1005.2
20260506200723 0 357 0.9 0.9 0.00 0.05 0.05 1005.2
20260506200220 0 58 0.9 0.9 0.00 0.05 0.05 1005.3
20260506195716 0 84 0.0 0.0 0.00 0.05 0.05 1005.3
20260506195212 0 73 0.0 0.0 0.00 0.05 0.05 1005.2
20260506194705 0 66 0.9 0.9 0.00 0.05 0.05 1005.1
20260506194201 0 178 0.9 0.9 0.07 0.05 0.05 1005.1
20260506193658 0 204 0.9 1.7 0.12 0.05 0.05 1005.1
20260506193155 0 145 1.7 1.7 0.05 0.04 0.04 1005.2
20260506192652 0 82 0.9 1.7 0.07 0.03 0.03 1005.5
20260506192148 0 48 0.0 0.9 0.07 0.03 0.03 1005.6
20260506191646 0 154 0.9 0.9 0.05 0.02 0.02 1005.5
20260506191141 0 95 0.9 0.9 0.05 0.02 0.02 1005.4
20260506190639 0 105 0.9 0.9 0.07 0.01 0.01 1005.3
20260506190135 0 52 0.0 0.9 0.07 0.01 0.01 1005.4
20260506185632 0 119 0.9 0.9 0.00 0.00 0.00 1005.4
20260506185128 0 83 0.9 1.7 0.00 0.00 0.00 1005.3
20260506184626 0 82 1.7 2.6 0.00 0.00 0.00 1005.6
20260506184123 0 85 0.0 0.0 0.00 0.00 0.00 1005.7
20260506183620 0 54 0.0 0.0 0.00 0.00 0.00 1005.7
20260506183116 0 171 1.7 2.6 0.00 0.00 0.00 1005.6
20260506182614 0 134 1.7 1.7 0.00 0.00 0.00 1005.8
20260506182110 0 17 1.7 1.7 0.00 0.00 0.00 1005.8
20260506181608 0 134 0.9 0.9 0.00 0.00 0.00 1005.5
20260506181105 0 208 1.7 4.3 0.00 0.00 0.00 1005.6
20260506180602 0 147 2.6 4.3 0.00 0.00 0.00 1005.9
20260506180059 0 75 0.9 0.9 0.00 0.00 0.00 1005.6
20260506175554 0 220 3.5 5.2 0.00 0.00 0.00 1005.6
20260506175051 0 194 0.0 0.9 0.00 0.00 0.00 1005.9
20260506174550 0 97 0.9 0.9 0.00 0.00 0.00 1005.6
20260506174046 0 205 2.6 4.3 0.00 0.00 0.00 1005.8
20260506173544 0 200 4.3 7.0 0.00 0.00 0.00 1005.8
20260506173040 0 36 0.9 1.7 0.00 0.00 0.00 1005.9
20260506172538 0 68 1.7 2.6 0.00 0.00 0.00 1005.6
20260506172034 0 71 1.7 1.7 0.00 0.00 0.00 1005.8
20260506171531 0 349 3.5 5.2 0.00 0.00 0.00 1006.0
20260506171029 0 145 1.7 1.7 0.00 0.00 0.00 1005.9
20260506170526 0 12 2.6 2.6 0.00 0.00 0.00 1005.8
20260506170023 0 180 1.7 2.6 0.00 0.00 0.00 1005.8
20260506165522 0 193 1.7 1.7 0.00 0.00 0.00 1005.8
20260506165018 0 64 0.0 0.9 0.00 0.00 0.00 1005.9
20260506164514 0 106 1.7 1.7 0.00 0.00 0.00 1006.0
20260506164012 0 90 5.2 7.8 0.00 0.00 0.00 1006.3
20260506163508 0 192 0.9 1.7 0.00 0.00 0.00 1006.2
20260506163004 0 140 0.9 1.7 0.00 0.00 0.00 1006.2
20260506162500 0 31 1.7 2.6 0.00 0.00 0.00 1006.2
20260506161957 0 118 2.6 5.2 0.00 0.00 0.00 1006.3
20260506161455 0 165 1.7 1.7 0.00 0.00 0.00 1006.5
20260506160952 0 180 3.5 6.1 0.00 0.00 0.00 1006.5
20260506160449 0 175 1.7 2.6 0.00 0.00 0.00 1006.8
20260506155946 0 223 1.7 1.7 0.00 0.00 0.00 1006.8
20260506155444 0 182 3.5 6.1 0.00 0.00 0.00 1007.0
20260506153616 0 344 3.5 6.1 0.00 0.00 0.00 1007.3
20260506153114 0 172 0.9 0.9 0.00 0.00 0.00 1007.0
20260506152611 0 202 1.7 2.6 0.00 0.00 0.00 1007.3
20260506152109 0 60 1.7 1.7 0.00 0.00 0.00 1007.3
20260506151607 0 348 1.7 2.6 0.00 0.00 0.00 1007.2
20260506151103 0 149 0.9 1.7 0.00 0.00 0.00 1007.3
20260506150600 0 246 5.2 7.0 0.00 0.00 0.00 1007.5
20260506150057 0 212 2.6 4.3 0.00 0.00 0.00 1007.4
20260506145554 0 37 1.7 1.7 0.00 0.00 0.00 1007.1
20260506145051 0 153 3.5 5.2 0.00 0.00 0.00 1007.4
20260506144548 0 36 1.7 2.6 0.00 0.00 0.00 1007.7
20260506144045 0 62 4.3 6.1 0.00 0.00 0.00 1007.4
20260506143543 0 337 4.3 6.1 0.00 0.00 0.00 1007.2
20260506143041 0 124 2.6 5.2 0.00 0.00 0.00 1007.4
20260506142538 0 177 2.6 2.6 0.00 0.00 0.00 1007.4
20260506142037 0 217 1.7 1.7 0.00 0.00 0.00 1007.5
20260506141534 0 130 3.5 7.0 0.00 0.00 0.00 1007.4
20260506141032 0 71 0.0 0.0 0.00 0.00 0.00 1007.2
20260506140529 0 70 1.7 2.6 0.00 0.00 0.00 1007.2
20260506140026 0 70 0.9 0.9 0.00 0.00 0.00 1007.4
20260506135523 0 87 0.9 0.9 0.00 0.00 0.00 1007.6
20260506135019 0 97 1.7 1.7 0.00 0.00 0.00 1007.7
20260506134515 0 128 0.9 0.9 0.00 0.00 0.00 1007.4
20260506134012 0 203 1.7 4.3 0.00 0.00 0.00 1007.4
20260506133509 0 193 4.3 4.3 0.00 0.00 0.00 1007.8
20260506133006 0 62 0.9 1.7 0.00 0.00 0.00 1007.9
20260506132503 0 76 0.9 0.9 0.00 0.00 0.00 1008.1
20260506132000 0 234 3.5 5.2 0.00 0.00 0.00 1008.1
20260506131457 0 106 0.0 0.9 0.00 0.00 0.00 1008.2
20260506130954 0 184 1.7 1.7 0.00 0.00 0.00 1008.2
20260506130450 0 137 0.0 0.9 0.00 0.00 0.00 1008.0
20260506125948 0 56 0.0 0.9 0.00 0.00 0.00 1008.1
20260506125446 0 353 1.7 2.6 0.00 0.00 0.00 1008.0
20260506124944 0 180 1.7 1.7 0.00 0.00 0.00 1007.9
20260506124441 0 172 2.6 4.3 0.00 0.00 0.00 1007.8
20260506123939 0 114 0.0 0.0 0.00 0.00 0.00 1008.1
20260506123437 0 340 1.7 1.7 0.00 0.00 0.00 1008.1
20260506122934 0 306 0.9 0.9 0.00 0.00 0.00 1008.2
20260506122431 0 105 1.7 1.7 0.00 0.00 0.00 1008.2
20260506121929 0 42 1.7 1.7 0.00 0.00 0.00 1008.3
20260506121426 0 221 1.7 2.6 0.00 0.00 0.00 1008.2
20260506120923 0 18 2.6 4.3 0.00 0.00 0.00 1008.4
20260506120420 0 93 1.7 1.7 0.00 0.00 0.00 1008.2
20260506115917 0 51 0.9 0.9 0.00 0.00 0.00 1008.1
20260506115415 0 78 0.9 1.7 0.00 0.00 0.00 1008.4
20260506114914 0 128 0.9 0.9 0.00 0.00 0.00 1008.4
20260506114411 0 48 1.7 2.6 0.00 0.00 0.00 1008.5
20260506113910 0 35 1.7 2.6 0.00 0.00 0.00 1008.2
20260506113407 0 92 2.6 5.2 0.00 0.00 0.00 1008.5
20260506112903 0 349 1.7 1.7 0.00 0.00 0.00 1008.9
20260506112401 0 86 0.0 0.0 0.00 0.00 0.00 1008.6
20260506111858 0 77 0.0 0.0 0.00 0.00 0.00 1008.8
20260506111356 0 135 2.6 2.6 0.00 0.00 0.00 1008.7
20260506110853 0 78 0.0 0.0 0.00 0.00 0.00 1008.5
20260506110350 0 96 0.9 1.7 0.00 0.00 0.00 1008.4
20260506105847 0 266 0.9 0.9 0.00 0.00 0.00 1008.5
20260506105343 0 33 0.9 1.7 0.00 0.00 0.00 1008.6
20260506104841 0 237 0.9 1.7 0.00 0.00 0.00 1008.4
20260506104338 0 75 0.0 0.0 0.00 0.00 0.00 1008.8
20260506103836 0 180 2.6 4.3 0.00 0.00 0.00 1008.7
20260506103333 0 102 0.9 0.9 0.00 0.00 0.00 1008.7
20260506102831 0 54 0.0 0.9 0.00 0.00 0.00 1008.7
20260506102328 0 104 0.9 0.9 0.00 0.00 0.00 1008.7
20260506101825 0 61 0.0 0.0 0.00 0.00 0.00 1008.8
20260506101321 0 45 0.9 1.7 0.00 0.00 0.00 1008.5
20260506100819 0 81 0.0 0.0 0.00 0.00 0.00 1008.5
20260506100318 0 66 0.0 0.0 0.00 0.00 0.00 1008.5
20260506095816 0 59 0.0 0.0 0.00 0.00 0.00 1008.5
20260506095312 0 91 0.9 1.7 0.00 0.00 0.00 1008.5
20260506094809 0 262 0.9 0.9 0.00 0.00 0.00 1008.4
20260506094308 0 100 1.7 2.6 0.00 0.00 0.00 1008.4
20260506093805 0 90 0.9 1.7 0.00 0.00 0.00 1008.3
20260506093302 0 71 0.0 0.9 0.00 0.00 0.00 1008.5
20260506092801 0 163 1.7 1.7 0.00 0.00 0.00 1008.4
20260506092258 0 58 0.9 0.9 0.00 0.00 0.00 1008.4
20260506091755 0 118 1.7 1.7 0.00 0.00 0.00 1008.2
20260506091252 0 75 0.0 0.9 0.00 0.00 0.00 1008.5
20260506090750 0 46 0.9 0.9 0.00 0.00 0.00 1008.3
20260506090247 0 93 0.9 0.9 0.00 0.00 0.00 1008.1
20260506085744 0 201 0.9 1.7 0.00 0.00 0.00 1008.4
20260506085240 0 123 1.7 1.7 0.00 0.00 0.00 1008.3
20260506084736 0 184 2.6 2.6 0.00 0.00 0.00 1008.4
20260506084233 0 21 1.7 1.7 0.00 0.00 0.00 1008.6
20260506083730 0 120 0.9 0.9 0.00 0.00 0.00 1008.5
20260506083228 0 345 0.9 0.9 0.00 0.00 0.00 1008.5
20260506082725 0 158 0.9 1.7 0.00 0.00 0.00 1008.4
20260506082220 0 103 0.9 0.9 0.00 0.00 0.00 1008.6
20260506081718 0 86 0.0 0.9 0.00 0.00 0.00 1008.5
20260506081215 0 26 2.6 4.3 0.00 0.00 0.00 1008.6
20260506080713 0 125 0.9 1.7 0.00 0.00 0.00 1008.5
20260506080210 0 45 0.9 0.9 0.00 0.00 0.00 1008.6
20260506073154 0 168 0.9 1.7 0.00 0.00 0.00 1008.5
20260506072650 0 108 1.7 2.6 0.00 0.00 0.00 1008.3
20260506072148 0 142 1.7 1.7 0.00 0.00 0.00 1008.2
20260506071645 0 135 0.9 0.9 0.00 0.00 0.00 1008.2
20260506071143 0 59 0.9 0.9 0.00 0.00 0.00 1008.1
20260506070640 0 47 1.7 1.7 0.00 0.00 0.00 1008.2
20260506070137 0 153 0.9 1.7 0.00 0.00 0.00 1008.0
20260506062114 0 182 2.6 2.6 0.00 0.00 0.00 1007.9
20260506061610 0 72 1.7 2.6 0.00 0.00 0.00 1007.6
20260506061108 0 214 0.9 0.9 0.00 0.00 0.00 1007.8